BAW564 EGLL-LIRF

Flight info

Callsign BAW564
Flight time N/A
Altitude 37000
Route MODMI M185 MID L612 BOGNA UL612 OGULO DCT OKASI DCT OKEKO DCT MOU DCT MADIV DCT MOKIP DCT TUFTA DCT KOGAS DCT MEDAM DCT NITAM DCT MOGBO DCT ELB/N0444F380 DCT ELKAP
Aircraft A320/M-SDE3FGHIRWY/LB1

Departure

Time 2026-05-05 19:43
Airport London Heathrow Airport (EGLL)

Arrival

Time N/A
Airport Rome–Fiumicino Leonardo da Vinci International Airport (LIRF)
Time Latitude Longitude Altitude Speed Heading
2026-05-05 19:27 51.47060 -0.48618 86 ft 0 kts 269°
2026-05-05 19:34 51.47060 -0.48617 86 ft 1 kts 269°
2026-05-05 19:34 51.47061 -0.48580 87 ft 4 kts 266°
2026-05-05 19:34 51.47063 -0.48537 90 ft 4 kts 260°
2026-05-05 19:35 51.47085 -0.48473 90 ft 2 kts 181°
2026-05-05 19:35 51.47087 -0.48472 90 ft 0 kts 180°
2026-05-05 19:40 51.47086 -0.48472 86 ft 2 kts 180°
2026-05-05 19:40 51.47035 -0.48472 86 ft 12 kts 180°
2026-05-05 19:40 51.46929 -0.48473 86 ft 18 kts 180°
2026-05-05 19:40 51.46786 -0.48468 86 ft 23 kts 179°
2026-05-05 19:41 51.46746 -0.48597 88 ft 17 kts 266°
2026-05-05 19:41 51.46707 -0.48753 87 ft 10 kts 196°
2026-05-05 19:41 51.46640 -0.48747 86 ft 12 kts 187°
2026-05-05 19:41 51.46542 -0.48784 89 ft 17 kts 181°
2026-05-05 19:42 51.46480 -0.48642 86 ft 18 kts 71°
2026-05-05 19:42 51.46480 -0.48456 87 ft 0 kts 90°
2026-05-05 19:43 51.46479 -0.48230 89 ft 71 kts 89°
2026-05-05 19:43 51.46499 -0.46824 89 ft 172 kts 89°
2026-05-05 19:43 51.46496 -0.44571 455 ft 223 kts 89°
2026-05-05 19:43 51.46462 -0.41858 1166 ft 248 kts 92°
2026-05-05 19:44 51.46217 -0.39135 1877 ft 251 kts 107°
2026-05-05 19:44 51.45281 -0.36771 2577 ft 259 kts 136°
2026-05-05 19:44 51.43679 -0.35409 3301 ft 268 kts 162°
2026-05-05 19:44 51.41818 -0.34927 3935 ft 274 kts 173°
2026-05-05 19:45 51.39893 -0.35168 4718 ft 281 kts 197°
2026-05-05 19:45 51.38888 -0.35854 4877 ft 279 kts 210°
2026-05-05 19:46 51.37625 -0.37146 4961 ft 278 kts 213°
2026-05-05 19:46 51.35960 -0.38708 4998 ft 278 kts 209°
2026-05-05 19:46 51.34279 -0.40113 5009 ft 277 kts 207°
2026-05-05 19:46 51.32541 -0.41499 5011 ft 278 kts 207°
2026-05-05 19:47 51.30740 -0.42649 5154 ft 283 kts 189°
2026-05-05 19:47 51.28783 -0.42556 6415 ft 283 kts 172°
2026-05-05 19:47 51.26818 -0.42128 7747 ft 286 kts 171°
2026-05-05 19:47 51.24833 -0.41656 9014 ft 292 kts 171°
2026-05-05 19:48 51.22800 -0.41156 10166 ft 300 kts 171°
2026-05-05 19:48 51.20644 -0.40620 10713 ft 328 kts 171°
2026-05-05 19:48 51.18270 -0.40033 10936 ft 363 kts 171°
2026-05-05 19:48 51.15687 -0.39396 11006 ft 384 kts 171°
2026-05-05 19:49 51.13005 -0.38737 11697 ft 392 kts 171°
2026-05-05 19:49 51.11212 -0.38299 12332 ft 395 kts 171°
2026-05-05 19:49 51.07614 -0.37032 13609 ft 401 kts 158°
2026-05-05 19:49 51.05189 -0.34828 14438 ft 404 kts 144°
2026-05-05 19:50 51.02890 -0.32207 15266 ft 408 kts 143°
2026-05-05 19:50 51.00575 -0.29532 16080 ft 413 kts 143°
2026-05-05 19:50 50.98247 -0.26833 16879 ft 417 kts 143°
2026-05-05 19:50 50.95884 -0.24100 17682 ft 422 kts 143°
2026-05-05 19:51 50.93501 -0.21350 18439 ft 427 kts 143°
2026-05-05 19:51 50.91079 -0.18573 19136 ft 432 kts 143°
2026-05-05 19:51 50.88627 -0.15769 19850 ft 437 kts 144°
2026-05-05 19:51 50.86153 -0.12943 20536 ft 441 kts 143°